[[{"header":{"parameterUnit":"m.s-1","parameterCategory":1,"la1":30.2992,"la2":30.254,"lo1":-89.0895,"lo2":-89.0443,"dy":0.0025,"dx":0.0025,"nx":19,"ny":19,"refTime":"2026-03-09T21:00:00:Z","depth":0,"parameterNumber":2,"parameterNumberName":"U-component_of_WINDS"},"data":[0,0,0,-1.6792,-1.6793,-1.6824,-1.6824,-1.6869,-1.687,0,0,0,0,0,0,0,0,0,0,0,-1.6784,-1.6785,-1.6792,-1.6793,-1.6824,-1.6824,-1.6869,-1.687,0,0,0,0,0,0,0,0,0,0,0,-1.6784,-1.6784,-1.6785,-1.6793,-1.6824,-1.6824,-1.6869,-1.6844,0,0,0,0,0,0,0,0,0,0,-1.6812,-1.6807,-1.6784,-1.6785,-1.6793,-1.6824,-1.6824,-1.6842,-1.6845,-1.6856,0,-1.6866,0,-1.6868,-1.6873,-1.6873,0,0,0,-1.6792,-1.6804,-1.6811,-1.6785,-1.6793,-1.6824,-1.681,-1.6844,-1.6847,-1.686,-1.6866,-1.6868,-1.6869,-1.6873,-1.6873,-1.6938,-1.6938,0,0,-1.679,-1.6791,-1.6809,-1.6813,-1.6808,-1.6809,-1.6811,-1.6846,-1.6853,-1.6867,-1.6869,-1.687,-1.6873,-1.6874,-1.6938,-1.6938,0,0,0,-1.6785,-1.679,-1.6796,-1.6812,-1.6817,-1.681,-1.6812,-1.6852,-1.6853,-1.6869,-1.687,-1.6874,-1.6874,-1.6937,-1.6938,-1.6955,0,0,0,-1.6784,-1.6787,-1.6795,-1.6796,-1.6816,-1.6835,-1.6817,-1.6851,-1.6855,-1.687,-1.6874,-1.6875,-1.6937,-1.6938,-1.6954,-1.6963,0,0,0,-1.6782,-1.6787,-1.6792,-1.6796,-1.681,-1.6834,-1.6838,-1.6852,-1.6856,-1.6873,-1.6875,-1.6937,-1.6938,-1.6953,-1.6961,-1.698,0,0,0,-1.6779,-1.6808,-1.6792,-1.6826,-1.681,-1.6845,-1.6837,-1.6864,-1.6881,-1.6874,-1.6937,-1.6938,-1.6952,-1.696,-1.6978,-1.6995,-1.7002,0,0,-1.6817,-1.6813,-1.6832,-1.6819,-1.6857,-1.684,-1.6881,-1.6896,-1.6897,-1.6925,-1.6926,-1.6954,-1.6961,-1.6979,-1.7043,-1.7048,0,0,0,-1.6845,-1.6858,-1.6868,-1.6884,-1.6895,-1.6906,-1.6915,-1.692,-1.6943,-1.6911,-1.6967,-1.6971,-1.6981,-1.6989,-1.6994,-1.7002,-1.6942,-1.6942,-1.6942,-1.6899,-1.6898,-1.693,-1.6932,-1.6948,-1.6956,-1.6969,-1.6978,-1.6973,-1.6986,-1.6994,-1.7032,-1.7041,-1.7045,-1.7054,-1.7004,-1.7004,-1.7004,-1.7004,-1.6953,-1.6972,-1.6964,-1.6992,-1.6991,-1.7015,-1.7024,-1.702,-1.7042,-1.7027,-1.7036,-1.7018,-1.7051,-1.7059,-1.7005,-1.7005,-1.7005,-1.7005,-1.7004,-1.6987,-1.6996,-1.7002,-1.7024,-1.7042,-1.7044,-1.7065,-1.7064,-1.7064,-1.7073,-1.708,-1.708,-1.7079,-1.7077,-1.7077,-1.7077,-1.7077,-1.7077,-1.7077,-1.7021,-1.7026,-1.7044,-1.7058,-1.7068,-1.7081,-1.7089,-1.7099,-1.711,-1.7107,-1.7107,-1.7101,-1.7055,-1.7042,-1.7079,-1.7079,-1.7079,-1.7079,-1.7079,-1.7074,-1.7061,-1.7088,-1.7098,-1.7114,-1.7131,-1.713,-1.715,-1.7158,-1.7168,-1.716,-1.7126,-1.7123,-1.7119,-1.7109,-1.716,-1.716,-1.716,-1.716,-1.7102,-1.71,-1.7126,-1.7142,-1.7157,-1.7158,-1.7188,-1.7195,-1.7201,-1.7206,-1.7199,-1.7185,-1.7182,-1.718,-1.7175,-1.7165,-1.7231,-1.7231,-1.7231,-1.7134,-1.7133,-1.7159,-1.7163,-1.7176,-1.7187,-1.7215,-1.7234,-1.7238,-1.7233,-1.721,-1.7207,-1.7185,-1.7179,-1.7172,-1.7165,-1.7147,0,0]},{"header":{"parameterUnit":"m.s-1","parameterCategory":1,"la1":30.2992,"la2":30.254,"lo1":-89.0895,"lo2":-89.0443,"dy":0.0025,"dx":0.0025,"nx":19,"ny":19,"refTime":"2026-03-09T21:00:00:Z","depth":0,"parameterNumber":3,"parameterNumberName":"V-component_of_WINDS"},"data":[0,0,0,2.7604,2.7604,2.7653,2.7653,2.7704,2.7705,0,0,0,0,0,0,0,0,0,0,0,2.7581,2.7581,2.7603,2.7604,2.7653,2.7653,2.7704,2.7705,0,0,0,0,0,0,0,0,0,0,0,2.7581,2.7581,2.7581,2.7605,2.7653,2.7653,2.7704,2.7672,0,0,0,0,0,0,0,0,0,0,2.7626,2.7598,2.7581,2.7581,2.7605,2.7653,2.7653,2.767,2.7674,2.7677,0,2.7678,0,2.7692,2.7707,2.7708,0,0,0,2.761,2.7595,2.7615,2.7582,2.7605,2.7653,2.7633,2.7672,2.7676,2.7682,2.7679,2.7681,2.7693,2.7708,2.7708,2.771,2.771,0,0,2.7607,2.7586,2.7613,2.7617,2.7608,2.7631,2.7634,2.7675,2.767,2.7679,2.7682,2.7694,2.7708,2.7708,2.7711,2.771,0,0,0,2.7596,2.7584,2.7603,2.7615,2.7625,2.7632,2.7636,2.7668,2.7677,2.7683,2.7694,2.7708,2.7709,2.7711,2.771,2.7678,0,0,0,2.7595,2.7577,2.7602,2.7589,2.7624,2.7647,2.7628,2.7674,2.7679,2.7694,2.7708,2.7709,2.7711,2.7711,2.7679,2.7665,0,0,0,2.7581,2.7575,2.758,2.7588,2.7608,2.7647,2.7657,2.7675,2.7686,2.7708,2.7709,2.7711,2.7711,2.768,2.7668,2.7661,0,0,0,2.756,2.7548,2.7579,2.7571,2.7607,2.7626,2.7657,2.7672,2.7687,2.7708,2.7711,2.7711,2.7681,2.7669,2.7662,2.7652,2.7645,0,0,2.7533,2.7544,2.7541,2.757,2.7578,2.762,2.7624,2.7657,2.7679,2.7699,2.7699,2.7679,2.7668,2.7661,2.7615,2.7609,0,0,0,2.7526,2.7524,2.753,2.7544,2.757,2.7592,2.7628,2.7641,2.766,2.7684,2.7675,2.7669,2.7666,2.7662,2.7657,2.7657,2.7708,2.7708,2.7708,2.7456,2.7486,2.7484,2.7521,2.7534,2.7573,2.7587,2.7611,2.7636,2.7633,2.7639,2.7607,2.7602,2.7599,2.7598,2.7636,2.7636,2.7636,2.7635,2.742,2.7423,2.7459,2.747,2.7503,2.7513,2.7551,2.7569,2.7584,2.7604,2.7603,2.7623,2.7592,2.7593,2.7633,2.7634,2.7634,2.7634,2.7634,2.7378,2.7385,2.7402,2.7427,2.7444,2.7482,2.7495,2.7524,2.7551,2.755,2.7561,2.7562,2.7567,2.7553,2.7553,2.7553,2.7553,2.7553,2.7553,2.7328,2.7349,2.7356,2.7386,2.74,2.7423,2.7464,2.748,2.7504,2.7524,2.7524,2.755,2.7583,2.7591,2.7551,2.7552,2.7552,2.7552,2.7552,2.7281,2.7297,2.7309,2.7324,2.7363,2.7379,2.7416,2.7445,2.7462,2.7469,2.7496,2.7515,2.7528,2.7532,2.7539,2.7489,2.7489,2.7489,2.7489,2.7246,2.7256,2.7277,2.7299,2.7324,2.736,2.7375,2.7408,2.7445,2.7458,2.747,2.7481,2.7484,2.7496,2.75,2.7507,2.745,2.745,2.745,2.722,2.7235,2.7241,2.7278,2.7311,2.734,2.7355,2.738,2.7425,2.7449,2.7469,2.7471,2.749,2.7494,2.7516,2.7523,2.7536,0,0]}]]